Location: Newark
(58.9986°N, 38.5006°E)
Time: 07:38:23
(UTC+00:00)

Explorer 7 - Pass Details

Date: 28 April 2021
Orbit: 484 x 677 km, 50.3° (Epoch: 11 May)

Event Time Altitude Azimuth Distance (km) Brightness Sun altitude
Rises 17:54:12 0° 257° (WSW) 2,643 10.9 -5.3°
Reaches altitude 10° 17:56:40 10° 242° (WSW) 1,786 9.7 -5.5°
Maximum altitude 17:59:53 23° 189° (S) 1,199 8.3 -5.8°
Drops below altitude 10° 18:03:16 10° 137° (SE) 1,877 8.9 -6.2°
Enters shadow 18:03:49 - 133° (SE) 2,055 9.0 -6.2°
